Regional Weather Roundup
Issued by NWS

Home | Current Version | Previous Version | Text Only | Print | Product List | Glossary On
Versions: 1 2 3 4 5 6 7 8 9 10 11 12 13 14 15 16 17 18 19 20 21 22 23 24 25 26 27 28 29 30 31 32 33 34 35 36 37 38 39 40 41 42 43 44 45 46 47 48 49 50
000
ASUS43 KFSD 280602
RWRSD

WEATHER ROUNDUP FOR SOUTH DAKOTA
NATIONAL WEATHER SERVICE SIOUX FALLS SD
1200 AM CST SUN DEC 28 2014

NOTE: "FAIR" INDICATES FEW OR NO CLOUDS BELOW 12,000 FEET WITH NO
SIGNIFICANT WEATHER AND/OR OBSTRUCTIONS TO VISIBILITY.


SDZ001>005-009-010-012>017-280700-
NORTHWEST AND NORTH CENTRAL SOUTH DAKOTA

CITY           SKY/WX    TMP DP  RH WIND       PRES   REMARKS
BUFFALO          N/A     21  15  78 W9        29.89F WCI  11
FAITH            N/A     22  13  68 W9        30.00S WCI  12
MOBRIDGE       CLOUDY    17  13  84 N3        30.00F
$$

SDZ012>016-024>037-041>051-057-063-072>074-280700-
SOUTHWEST AND SOUTH CENTRAL SOUTH DAKOTA

CITY           SKY/WX    TMP DP  RH WIND       PRES   REMARKS
RAPID CTY ARPT CLOUDY    13   6  74 CALM      30.01F
PIERRE         CLEAR     16  11  80 W10       30.05F WCI   4
CUSTER         CLEAR     11   3  70 W3        29.92F
ELLSWORTH AFB  CLOUDY    17   9  69 W9        29.99F WCI   6
PHILIP         CLEAR     13   8  81 W10       30.05F WCI   0
PINE RIDGE     CLEAR     17   6  62 VRB5      30.05F WCI  10
WINNER         FAIR      19   8  62 SW8       30.07F WCI   9
$$

SDZ004>011-016>023-039-040-280700-
NORTHEAST SOUTH DAKOTA

CITY           SKY/WX    TMP DP  RH WIND       PRES   REMARKS
ABERDEEN       PTCLDY    11   7  84 CALM      30.07S
WATERTOWN      CLEAR      6   3  87 S5        30.03F WCI  -3
SISSETON         N/A     19  15  84 W7        30.03F WCI  10
$$

SDZ017-020-022-023-036>040-048>070-280700-
SOUTHEAST SOUTH DAKOTA

CITY           SKY/WX    TMP DP  RH WIND       PRES   REMARKS
SIOUX FALLS    PTCLDY     3   2  95 CALM      30.10F
HURON          CLEAR     10   7  87 S5        30.08S WCI   2
MITCHELL       CLEAR      7   5  91 SE3       30.10F
YANKTON        CLEAR      9   5  85 CALM      30.14F VSB 1
$$

ABBREVIATIONS USED IN REMARKS
   TC - TEMPERATURE IN CELSIUS
  WCI - WIND CHILL INDEX
   HX - HEAT INDEX
  VSB - VISIBILITY



USA.gov is the U.S. government's official web portal to all federal, state and local government web resources and services.